Weather History for Mayport NS, FL

Change the Weather History Date:

Monday, October 14, 2013

  Actual Average Record
Temperature  
Mean Temperature 70 °F -  
Max Temperature 75 °F 77 °F 87 °F (2003)
Min Temperature 68 °F 65 °F 55 °F (2004)
Cooling Degree Days 6    
Growing Degree Days 20 (Base 50)    
Moisture  
Dew Point 67 °F    
Average Humidity 89    
Maximum Humidity 96    
Minimum Humidity 73    
Precipitation  
Precipitation 0.14 in - - ()
Sea Level Pressure  
Sea Level Pressure 30.05 in    
Wind  
Wind Speed 9 mph (North)    
Max Wind Speed 18 mph    
Max Gust Speed 25 mph    
Visibility 9 miles    
Events Rain    
Averages and records for this station are not official NWS values.
T = Trace of Precipitation, MM = Missing Value Source: NWS Daily Summary

Daily Weather History Graph

Daily Weather History Graph

Search for Another Location

Airport:

Trip Planner

Search our weather history database for the weather conditions in past years. The results will help you decide how hot, cold, wet, or windy it might be!

Date:

Astronomy

Oct. 14, 2013 Rise Set
Actual Time 7:27 AM EDT 6:55 PM EDT
Civil Twilight 7:03 AM EDT 7:19 PM EDT
Nautical Twilight 6:35 AM EDT 7:47 PM EDT
Astronomical Twilight 6:07 AM EDT 8:15 PM EDT
Moon 4:08 PM EDT (10/14) 3:00 AM EDT (10/14)
Length of Visible Light 12h 16m
Length of Day
11h 28m
Waxing Gibbous, 79% of the Moon is Illuminated
Oct 14
Waxing Gibbous
Oct 18
Full
Oct 26
Last Quarter
Nov 3
New
Nov 10
First Quarter

Hourly Weather History & Observations

Time (EDT) Temp. Dew Point Humidity Pressure Visibility Wind Dir Wind Speed Gust Speed Precip Events Conditions
12:52 AM 73.0 °F 64.0 °F 73% 30.07 in 10.0 mi NNE 10.4 mph - N/A   Clear
1:52 AM 73.0 °F 64.9 °F 76% 30.06 in 10.0 mi NNE 8.1 mph - N/A   Scattered Clouds
2:52 AM 70.0 °F 66.0 °F 87% 30.05 in 10.0 mi Variable 4.6 mph - N/A   Mostly Cloudy
3:12 AM 69.1 °F 66.0 °F 90% 30.05 in 10.0 mi NW 3.5 mph - N/A   Scattered Clouds
3:52 AM 69.1 °F 66.9 °F 93% 30.04 in 10.0 mi NNW 3.5 mph - N/A   Partly Cloudy
4:52 AM 68.0 °F 66.9 °F 96% 30.05 in 10.0 mi Variable 3.5 mph - N/A   Partly Cloudy
5:52 AM 68.0 °F 66.9 °F 96% 30.04 in 9.0 mi Variable 3.5 mph - 0.00 in Rain Light Rain
6:52 AM 68.0 °F 66.0 °F 93% 30.05 in 10.0 mi Variable 4.6 mph - 0.00 in   Overcast
7:35 AM 68.0 °F 66.9 °F 96% 30.06 in 4.0 mi North 9.2 mph - 0.01 in Rain Light Rain
7:52 AM 68.0 °F 66.9 °F 96% 30.06 in 5.0 mi NNW 3.5 mph - 0.01 in Rain Light Rain
8:52 AM 68.0 °F 66.9 °F 96% 30.08 in 9.0 mi Variable 3.5 mph - 0.01 in   Overcast
9:15 AM 68.0 °F 66.9 °F 96% 30.08 in 10.0 mi NW 5.8 mph - N/A   Overcast
9:31 AM 69.1 °F 66.9 °F 93% 30.08 in 10.0 mi NW 8.1 mph - N/A   Overcast
9:52 AM 70.0 °F 68.0 °F 93% 30.08 in 10.0 mi NNW 5.8 mph - N/A   Overcast
10:52 AM 70.0 °F 68.0 °F 93% 30.08 in 3.0 mi North 10.4 mph - 0.01 in Rain Rain
11:13 AM 69.1 °F 68.0 °F 96% 30.08 in 1.8 mi NNW 8.1 mph 18.4 mph 0.05 in Rain Heavy Rain
11:22 AM 69.1 °F 68.0 °F 96% 30.08 in 3.0 mi North 10.4 mph 18.4 mph 0.06 in Rain Light Rain
11:52 AM 72.0 °F 69.1 °F 91% 30.07 in 10.0 mi North 12.7 mph 20.7 mph 0.06 in   Overcast
12:10 PM 71.1 °F 68.0 °F 90% 30.07 in 6.0 mi North 12.7 mph 19.6 mph 0.02 in Rain Light Rain
12:18 PM 71.1 °F 68.0 °F 90% 30.07 in 9.0 mi North 13.8 mph 23.0 mph 0.02 in Rain Light Rain
12:52 PM 73.9 °F 68.0 °F 82% 30.06 in 10.0 mi North 16.1 mph 24.2 mph 0.02 in   Overcast
1:52 PM 73.0 °F 66.0 °F 79% 30.04 in 10.0 mi North 18.4 mph 25.3 mph N/A   Overcast
2:52 PM 73.9 °F 66.0 °F 76% 30.02 in 10.0 mi North 17.3 mph 23.0 mph N/A   Overcast
3:52 PM 73.0 °F 66.0 °F 79% 30.01 in 10.0 mi North 16.1 mph 24.2 mph N/A   Overcast
4:01 PM 73.0 °F 66.9 °F 81% 30.02 in 10.0 mi North 16.1 mph 24.2 mph N/A   Overcast
4:34 PM 73.0 °F 66.9 °F 81% 30.02 in 10.0 mi North 13.8 mph 23.0 mph N/A   Overcast
4:41 PM 73.0 °F 66.9 °F 81% 30.02 in 10.0 mi North 15.0 mph 21.9 mph N/A   Overcast
4:52 PM 72.0 °F 66.9 °F 84% 30.02 in 10.0 mi North 11.5 mph 24.2 mph N/A   Overcast
5:04 PM 72.0 °F 66.9 °F 84% 30.02 in 10.0 mi North 15.0 mph - N/A   Overcast
5:43 PM 72.0 °F 66.0 °F 81% 30.02 in 10.0 mi North 12.7 mph 19.6 mph N/A   Overcast
5:52 PM 71.1 °F 66.0 °F 84% 30.02 in 10.0 mi North 11.5 mph 19.6 mph N/A   Overcast
6:52 PM 69.1 °F 66.0 °F 90% 30.02 in 10.0 mi NNW 8.1 mph - 0.00 in   Overcast
7:52 PM 69.1 °F 66.9 °F 93% 30.03 in 6.0 mi North 6.9 mph - 0.01 in Rain Light Rain
8:24 PM 68.0 °F 66.9 °F 96% 30.03 in 10.0 mi Variable 6.9 mph - 0.00 in   Overcast
8:52 PM 68.0 °F 66.0 °F 93% 30.03 in 10.0 mi NNW 6.9 mph - 0.00 in   Overcast
9:22 PM 68.0 °F 66.0 °F 93% 30.03 in 8.0 mi NNW 8.1 mph - 0.00 in Rain Light Rain
9:37 PM 68.0 °F 66.9 °F 96% 30.03 in 6.0 mi NNW 8.1 mph - 0.01 in Rain Light Rain
9:52 PM 68.0 °F 66.0 °F 93% 30.03 in 10.0 mi NNW 6.9 mph - 0.01 in   Overcast
10:34 PM 68.0 °F 66.9 °F 96% 30.04 in 6.0 mi NNW 6.9 mph - 0.01 in Rain Light Rain
10:52 PM 68.0 °F 66.9 °F 96% 30.04 in 10.0 mi NNW 9.2 mph - 0.01 in   Overcast
11:52 PM 68.0 °F 66.9 °F 96% 30.03 in 10.0 mi Variable 6.9 mph - 0.00 in   Overcast